Regional Weather Roundup
Issued by NWS

Home | Current Version | Previous Version | Graphics & Text | Print | Product List | Glossary On
Versions: 1 2 3 4 5 6 7 8 9 10 11 12 13 14 15 16 17 18 19 20 21 22 23 24 25 26 27 28 29 30 31 32 33 34 35 36 37 38 39 40 41 42 43 44 45 46 47 48 49 50
000
ASUS43 KDMX 221707
RWRIA

WEATHER ROUNDUP FOR IOWA
NATIONAL WEATHER SERVICE DES MOINES IA
1200 PM CDT TUE JUL 22 2014

NOTE: "FAIR" INDICATES FEW OR NO CLOUDS BELOW 12,000 FEET WITH NO
SIGNIFICANT WEATHER AND/OR OBSTRUCTIONS TO VISIBILITY.

* - THESE STATIONS ARE NOT NWS STATIONS...THUS NOT UNDER NWS
QUALITY CONTROL.  THEY ALSO DO NOT REPORT WEATHER SUCH
AS PRECIPITATION OR FOG.

IAZ001>003-012>014-020>022-031>034-043>046-221800-
   NORTHWEST IOWA

CITY           SKY/WX    TMP DP  RH WIND       PRES   REMARKS
CARROLL *      SUNNY     79  68  69 N9        30.01R HX  81
CHEROKEE *     MOSUNNY   79  66  65 N10G18    30.06R HX  81
DENISON *      SUNNY     79  70  73 NW7G14    30.03R HX  81
LE MARS *      SUNNY     79  68  69 N12       30.09R HX  81
ORANGE CITY *  SUNNY     81  64  57 N10       30.11R HX  82
SHELDON *      PTSUNNY   79  68  69 N12       30.09R HX  81
SIOUX CITY     MOSUNNY   81  67  62 N15       30.07R HX  83
SPENCER        SUNNY     81  66  60 N15       30.08R HX  83
STORM LAKE *   SUNNY     81  70  69 N15       30.04F HX  84
$$

IAZ055>058-069>071-079>083-090>094-221800-
   SOUTHWEST IOWA

CITY           SKY/WX    TMP DP  RH WIND       PRES   REMARKS
ATLANTIC *     SUNNY     88  77  70 E8G15     29.98S HX 100
AUDUBON *      SUNNY     84  79  84 SE6       30.00S HX  96
CLARINDA *     SUNNY     88  77  70 SE7       30.01R HX 100
COUNCIL BLFS * SUNNY     90  77  66 CALM      29.99R HX 102
CRESTON *      SUNNY     86  77  74 S6        29.99F HX  97
HARLAN  *      SUNNY     86  77  74 CALM      30.03R HX  97
LAMONI         MOSUNNY   85  77  77 SW7       30.01R HX  95
RED OAK *      SUNNY     88  77  70 SE7       29.99S HX 100
SHENANDOAH *   SUNNY     90  77  66 CALM      30.00S HX 102
$$

IAZ047>049-059>061-072>074-084-221800-
   CENTRAL IOWA

CITY           SKY/WX    TMP DP  RH WIND       PRES   REMARKS
AMES           PTSUNNY   84  77  79 CALM      29.96S HX  94
ANKENY *       SUNNY     86  77  74 E3        29.94F HX  97
CHARITON *     SUNNY     84  77  79 S7        30.00R HX  94
DES MOINES     CLOUDY    88  77  69 SE10      29.95F HX 100
GRINNELL*      CLOUDY    82  75  78 S8        29.98S HX  89
KNOXVILLE *    SUNNY     81  77  89 SE7       29.97F HX  88
MARSHALLTOWN   PTSUNNY   86  78  77 SE8       29.93F HX  98
PELLA *        CLOUDY    81  75  83 S10       29.99F HAZE    HX  86
PERRY *          N/A     84  73  70 CALM      29.98S HX  91
$$

IAZ004>006-015-016-023>025-035-036-221800-
   NORTH CENTRAL IOWA

CITY           SKY/WX    TMP DP  RH WIND       PRES   REMARKS
ALGONA *       SUNNY     81  68  65 N14       30.05R HX  83
CLARION *      SUNNY     84  68  58 N12       30.02R HX  87
ESTHERVILLE    SUNNY     79  66  64 N13       30.07R HX  81
FORT DODGE *   MOSUNNY   84  68  58 N7G16     30.03R HX  87
MASON CITY     SUNNY     85  69  58 NW10      30.01R HX  89
FOREST CITY *  SUNNY     82  68  61 NE16G25   30.02R HX  85
IOWA FALLS *   PTSUNNY   84  73  70 W3        30.01R HX  91
$$

IAZ007>011-017>019-026>030-037>042-050>054-066-221800-
   NORTHEAST IOWA

CITY           SKY/WX    TMP DP  RH WIND       PRES   REMARKS
CEDAR RAPIDS   PTSUNNY   86  75  69 SW9       29.95F HX  95
CHARLES CITY * SUNNY     86  72  62 NW8       29.98R HX  92
DECORAH *      SUNNY     86  75  70 SW3       29.94R HX  95
DUBUQUE        MOSUNNY   85  76  74 SW13      29.96F HX  94
MONTICELLO *   PTSUNNY   84  75  74 SW15      29.95F HX  92
OELWEIN *      MOSUNNY   86  77  74 S9        29.94F HX  97
WATERLOO       SUNNY     87  75  67 SE10      29.91F HX  96
$$

IAZ064-065-067-068-078-221800-
   EAST CENTRAL IOWA

CITY           SKY/WX    TMP DP  RH WIND       PRES   REMARKS
DAVENPORT      MOSUNNY   84  73  69 SW16G22   29.99S HX  90
IOWA CITY      MOSUNNY   86  77  74 SW8       29.97S HX  97
MT. PLEASANT * CLOUDY    79  72  78 S8        30.01F HX  82
MUSCATINE *    SUNNY     82  73  74 S10G17    29.98F HX  88
QUAD CITIES    PTSUNNY   83  73  72 SW12      29.98S HX  89
$$

IAZ062-063-075>077-085>089-095>099-221800-
   SOUTHEAST IOWA

CITY           SKY/WX    TMP DP  RH WIND       PRES   REMARKS
BURLINGTON     CLOUDY    77  73  87 SW13G22   29.99F
FAIRFIELD *    SUNNY     82  75  78 S9G18     30.01R HX  89
FORT MADISON * CLOUDY    77  73  88 SW9       30.01F
KEOKUK *       CLOUDY    75  72  88 SW8       30.01R
OSKALOOSA *      N/A     82  75  78 SW10      29.98F HX  89
CENTERVILLE *  SUNNY     82  77  83 S7        30.02F HX  91
OTTUMWA        PTSUNNY   82  75  79 SW9       29.96F HX  89
WASHINGTON *   SUNNY     84  77  79 SW10G17   29.99R HX  94
$$

ABBREVIATIONS USED IN REMARKS
   TC - TEMPERATURES IN CELSIUS
  WCI - WIND CHILL INDEX
   HX - HEAT INDEX
  VSB - VISIBILITY
$$




USA.gov is the U.S. government's official web portal to all federal, state and local government web resources and services.